This demonstration page uses our WeatherBlox Daily Observations layout. Learn more.

Left ArrowRight Arrow

Hourly Observations for February 7, 2017

Temp ( °F °C ) Dew Point ( °F °C ) Humidity (%) Winds ( mph kmh ) Pressure ( in mb ) Visibility ( mi km ) Precip ( " mm )
12:53 am 00:53 Clear 53 11.7 23 -5 31 31 W 12 19 29.79 1009 10 16 0.00 0.00
1:53 am 01:53 Clear 51 10.6 23 -5 33 33 W 10 17 29.80 1009 10 16 0.00 0.00
2:53 am 02:53 Clear 49 9.4 24 -4.4 38 38 WSW 6 9 29.80 1009 10 16 0.00 0.00
3:53 am 03:53 Clear 51 10.6 23 -5 33 33 WSW 10 17 29.78 1009 10 16 0.00 0.00
4:53 am 04:53 Clear 50 10 22 -5.6 33 33 W 8 13 29.79 1009 10 16 0.00 0.00
5:53 am 05:53 Clear 50 10 22 -5.6 33 33 WSW 9 15 29.81 1010 10 16 0.00 0.00
6:53 am 06:53 Clear 51 10.6 21 -6.1 31 31 W 9 15 29.82 1010 10 16 0.00 0.00
7:53 am 07:53 Sunny 51 10.6 22 -5.6 32 32 WSW 10 17 29.84 1011 10 16 0.00 0.00
8:53 am 08:53 Sunny 54 12.2 23 -5 30 30 WSW 13 20 29.85 1011 10 16 0.00 0.00
9:53 am 09:53 Sunny 62 16.7 28 -2.2 28 28 W 16 26 29.86 1011 10 16 0.00 0.00
10:53 am 10:53 Sunny 65 18.3 30 -1.1 27 27 W 18 30 29.87 1011 10 16 0.00 0.00
11:53 am 11:53 Sunny 69 20.6 32 0 25 25 W 18 30 29.85 1011 10 16 0.00 0.00
12:53 pm 12:53 Sunny 72 22.2 31 -0.6 22 22 W 14 22 29.82 1010 10 16 0.00 0.00
1:53 pm 13:53 Sunny 75 23.9 30 -1.1 19 19 NW 12 19 29.77 1008 10 16 0.00 0.00
2:53 pm 14:53 Sunny 76 24.4 28 -2.2 17 17 NW 12 19 29.74 1007 10 16 0.00 0.00
3:53 pm 15:53 Sunny 77 25 27 -2.8 16 16 WSW 15 24 29.71 1006 10 16 0.00 0.00
4:53 pm 16:53 Sunny 77 25 28 -2.2 16 16 W 22 35 29.70 1006 10 16 0.00 0.00
5:53 pm 17:53 Sunny 73 22.8 28 -2.2 19 19 WSW 12 19 29.72 1006 10 16 0.00 0.00
6:53 pm 18:53 Clear 68 20 28 -2.2 22 22 WSW 12 19 29.74 1007 10 16 0.00 0.00
7:53 pm 19:53 Clear 64 17.8 30 -1.1 28 28 WSW 10 17 29.76 1008 10 16 0.00 0.00
8:53 pm 20:53 Clear 66 18.9 31 -0.6 27 27 W 18 30 29.77 1008 10 16 0.00 0.00
9:53 pm 21:53 Clear 60 15.6 31 -0.6 33 33 WSW 12 19 29.78 1008 10 16 0.00 0.00
10:53 pm 22:53 Clear 58 14.4 32 0 38 38 WSW 13 20 29.77 1008 10 16 0.00 0.00
11:53 pm 23:53 Clear 57 13.9 33 0.6 41 41 SW 10 17 29.77 1008 10 16 0.00 0.00

Powered by AerisWeather